QPF
0.00 0.00 0.00 0.00 0.01 0.01 0.01 0.01 0.01 0.02 0.03 0.04 0.04 0.03 0.02 0.01 0.03 0.04 0.03 0.03 0.03 0.03 0.03 0.03 0.03 0.03 0.04 0.06 0.10 0.11 0.11 0.10 0.09 0.08 0.07 0.04 0.03 0.02
0.00 0.00 0.00 0.00 0.00 0.01 0.01 0.01 0.01 0.02 0.02 0.02 0.02 0.02 0.02 0.01 0.02 0.02 0.04 0.05 0.04 0.03 0.03 0.03 0.02 0.02 0.02 0.02 0.04 0.07 0.06 0.06 0.07 0.08 0.07 0.05 0.03 0.02
0.00 0.00 0.00 0.00 0.00 0.01 0.01 0.02 0.01 0.01 0.01 0.02 0.01 0.02 0.02 0.02 0.02 0.03 0.03 0.05 0.04 0.04 0.03 0.03 0.03 0.02 0.01 0.01 0.02 0.04 0.03 0.03 0.03 0.05 0.07 0.07 0.04 0.02
0.00 0.00 0.00 0.00 0.00 0.01 0.01 0.01 0.01 0.02 0.01 0.01 0.01 0.02 0.02 0.02 0.02 0.03 0.03 0.03 0.03 0.04 0.04 0.03 0.04 0.04 0.02 0.01 0.01 0.01 0.01 0.02 0.02 0.02 0.03 0.04 0.04 0.03
0.00 0.00 0.00 0.01 0.00 0.00 0.01 0.01 0.01 0.01 0.01 0.01 0.01 0.01 0.02 0.02 0.02 0.02 0.03 0.04 0.04 0.03 0.03 0.03 0.04 0.05 0.05 0.03 0.01 0.01 0.01 0.02 0.02 0.02 0.02 0.02 0.02 0.03
0.00 0.00 0.00 0.00 0.00 0.00 0.00 0.00 0.01 0.01 0.01 0.01 0.01 0.02 0.02 0.03 0.02 0.01 0.01 0.04 0.05 0.04 0.04 0.03 0.04 0.05 0.05 0.07 0.05 0.02 0.02 0.02 0.02 0.01 0.02 0.02 0.02 0.02
0.00 0.00 0.00 0.00 0.00 0.00 0.00 0.00 0.00 0.01 0.01 0.01 0.01 0.03 0.03 0.03 0.02 0.01 0.01 0.04 0.07 0.05 0.05 0.03 0.03 0.03 0.04 0.06 0.08 0.06 0.04 0.04 0.03 0.02 0.02 0.02 0.03 0.03
0.00 0.00 0.00 0.00 0.00 0.00 0.00 0.00 0.00 0.00 0.00 0.01 0.01 0.01 0.01 0.02 0.02 0.02 0.02 0.03 0.07 0.05 0.05 0.05 0.04 0.04 0.04 0.04 0.06 0.08 0.07 0.05 0.04 0.04 0.04 0.03 0.03 0.04
0.00 0.00 0.00 0.00 0.00 0.00 0.00 0.00 0.00 0.00 0.00 0.00 0.00 0.01 0.01 0.01 0.02 0.02 0.02 0.03 0.05 0.07 0.09 0.09 0.06 0.05 0.05 0.05 0.07 0.09 0.09 0.08 0.06 0.06 0.05 0.05 0.05 0.05
0.00 0.00 0.00 0.00 0.00 0.00 0.00 0.00 0.00 0.00 0.00 0.00 0.00 0.01 0.01 0.01 0.01 0.02 0.03 0.04 0.04 0.05 0.08 0.10 0.07 0.07 0.07 0.06 0.08 0.09 0.09 0.08 0.07 0.06 0.05 0.05 0.06 0.07
0.00 0.00 0.01 0.01 0.00 0.00 0.00 0.01 0.00 0.00 0.00 0.00 0.00 0.01 0.01 0.01 0.01 0.02 0.03 0.04 0.05 0.03 0.04 0.10 0.07 0.07 0.07 0.06 0.06 0.08 0.08 0.09 0.07 0.06 0.05 0.04 0.04 0.05
0.00 0.00 0.01 0.01 0.01 0.01 0.01 0.01 0.01 0.00 0.00 0.00 0.00 0.01 0.01 0.01 0.02 0.03 0.03 0.05 0.05 0.05 0.04 0.07 0.06 0.06 0.06 0.05 0.05 0.05 0.05 0.06 0.06 0.05 0.05 0.05 0.04 0.03
0.00 0.00 0.01 0.02 0.02 0.02 0.02 0.01 0.02 0.02 0.01 0.01 0.01 0.00 0.01 0.02 0.03 0.03 0.04 0.05 0.06 0.06 0.06 0.07 0.07 0.07 0.05 0.03 0.04 0.04 0.03 0.04 0.04 0.05 0.06 0.07 0.07 0.05
0.00 0.00 0.01 0.01 0.02 0.02 0.01 0.01 0.03 0.03 0.02 0.01 0.01 0.01 0.01 0.01 0.02 0.03 0.04 0.05 0.06 0.07 0.07 0.09 0.09 0.09 0.07 0.05 0.03 0.03 0.03 0.03 0.03 0.04 0.06 0.08 0.08 0.07
0.00 0.00 0.01 0.01 0.01 0.02 0.02 0.03 0.03 0.03 0.03 0.02 0.02 0.01 0.01 0.01 0.02 0.02 0.03 0.04 0.05 0.05 0.06 0.06 0.07 0.09 0.09 0.06 0.04 0.04 0.04 0.04 0.03 0.03 0.03 0.04 0.05 0.05
0.00 0.00 0.00 0.01 0.01 0.01 0.02 0.02 0.03 0.03 0.04 0.04 0.04 0.03 0.02 0.03 0.03 0.03 0.03 0.04 0.05 0.05 0.04 0.04 0.05 0.07 0.07 0.07 0.07 0.06 0.06 0.05 0.04 0.03 0.03 0.03 0.03 0.02
0.00 0.00 0.01 0.01 0.01 0.01 0.02 0.03 0.04 0.04 0.05 0.06 0.06 0.05 0.04 0.03 0.03 0.04 0.04 0.04 0.04 0.04 0.04 0.05 0.05 0.05 0.05 0.05 0.05 0.05 0.05 0.06 0.06 0.05 0.04 0.03 0.02 0.02
0.00 0.00 0.01 0.01 0.01 0.02 0.02 0.03 0.04 0.05 0.06 0.08 0.08 0.07 0.06 0.04 0.04 0.05 0.06 0.06 0.05 0.04 0.04 0.05 0.07 0.07 0.06 0.05 0.04 0.03 0.03 0.03 0.04 0.04 0.04 0.04 0.03 0.02
0.00 0.00 0.00 0.01 0.01 0.02 0.03 0.03 0.04 0.05 0.06 0.08 0.10 0.09 0.09 0.08 0.06 0.05 0.06 0.08 0.07 0.05 0.05 0.06 0.08 0.08 0.07 0.05 0.04 0.04 0.04 0.04 0.04 0.04 0.04 0.03 0.03 0.02
0.00 0.00 0.00 0.01 0.02 0.02 0.02 0.04 0.05 0.06 0.07 0.07 0.09 0.10 0.11 0.10 0.09 0.08 0.07 0.07 0.07 0.06 0.05 0.06 0.06 0.07 0.07 0.06 0.06 0.05 0.05 0.04 0.03 0.03 0.03 0.03 0.02 0.02
0.00 0.00 0.00 0.01 0.02 0.02 0.02 0.03 0.05 0.06 0.07 0.07 0.07 0.08 0.10 0.11 0.11 0.10 0.08 0.07 0.07 0.05 0.04 0.04 0.04 0.06 0.08 0.08 0.08 0.06 0.05 0.05 0.04 0.04 0.03 0.03 0.03 0.03
0.01 0.01 0.01 0.01 0.01 0.02 0.02 0.03 0.05 0.07 0.06 0.07 0.07 0.07 0.08 0.10 0.10 0.10 0.10 0.08 0.07 0.05 0.04 0.04 0.06 0.07 0.07 0.07 0.08 0.08 0.07 0.06 0.07 0.05 0.04 0.04 0.03 0.03
0.01 0.01 0.01 0.01 0.01 0.02 0.03 0.04 0.05 0.07 0.07 0.07 0.07 0.08 0.09 0.11 0.10 0.10 0.11 0.10 0.08 0.06 0.06 0.06 0.06 0.06 0.06 0.07 0.08 0.08 0.07 0.06 0.06 0.06 0.04 0.04 0.05 0.04
MSLP
1015.44 1015.45 1015.45 1015.44 1015.41 1015.34 1015.23 1015.06 1014.85 1014.60 1014.31 1014.01 1013.70 1013.41 1013.14 1012.92 1012.75 1012.64 1012.60 1012.63 1012.73 1012.90 1013.13 1013.40 1013.70 1014.02 1014.33 1014.62 1014.90 1015.14 1015.37 1015.58 1015.78 1015.98 1016.18 1016.39 1016.61 1016.83
1015.33 1015.35 1015.37 1015.36 1015.33 1015.27 1015.18 1015.04 1014.86 1014.65 1014.40 1014.13 1013.85 1013.56 1013.27 1013.00 1012.76 1012.56 1012.43 1012.36 1012.38 1012.47 1012.64 1012.88 1013.16 1013.47 1013.78 1014.09 1014.37 1014.63 1014.87 1015.08 1015.29 1015.49 1015.70 1015.91 1016.13 1016.35
1015.24 1015.26 1015.28 1015.27 1015.24 1015.18 1015.09 1014.98 1014.83 1014.66 1014.46 1014.24 1013.99 1013.71 1013.42 1013.12 1012.83 1012.56 1012.35 1012.19 1012.12 1012.13 1012.23 1012.41 1012.64 1012.92 1013.21 1013.50 1013.78 1014.04 1014.27 1014.49 1014.70 1014.91 1015.13 1015.36 1015.60 1015.84
1015.24 1015.26 1015.25 1015.23 1015.19 1015.12 1015.03 1014.93 1014.80 1014.67 1014.51 1014.32 1014.10 1013.85 1013.57 1013.26 1012.94 1012.62 1012.34 1012.11 1011.95 1011.89 1011.91 1012.02 1012.20 1012.43 1012.68 1012.93 1013.18 1013.41 1013.63 1013.84 1014.05 1014.27 1014.51 1014.77 1015.04 1015.31
1015.38 1015.38 1015.35 1015.30 1015.23 1015.14 1015.03 1014.92 1014.80 1014.67 1014.53 1014.37 1014.18 1013.95 1013.68 1013.36 1013.02 1012.67 1012.34 1012.06 1011.84 1011.71 1011.67 1011.72 1011.84 1012.00 1012.20 1012.41 1012.61 1012.81 1013.00 1013.19 1013.39 1013.62 1013.88 1014.17 1014.48 1014.80
1015.68 1015.64 1015.58 1015.49 1015.38 1015.24 1015.10 1014.96 1014.82 1014.68 1014.53 1014.38 1014.19 1013.96 1013.69 1013.37 1013.02 1012.65 1012.29 1011.97 1011.72 1011.55 1011.46 1011.46 1011.53 1011.64 1011.79 1011.95 1012.10 1012.26 1012.41 1012.58 1012.77 1013.00 1013.27 1013.59 1013.94 1014.31
1016.09 1016.01 1015.90 1015.76 1015.60 1015.41 1015.22 1015.03 1014.84 1014.67 1014.49 1014.31 1014.10 1013.86 1013.57 1013.24 1012.87 1012.49 1012.12 1011.79 1011.52 1011.33 1011.22 1011.19 1011.23 1011.32 1011.43 1011.55 1011.67 1011.78 1011.91 1012.05 1012.22 1012.45 1012.73 1013.07 1013.46 1013.87
1016.51 1016.39 1016.24 1016.05 1015.83 1015.59 1015.34 1015.09 1014.85 1014.62 1014.39 1014.16 1013.91 1013.63 1013.31 1012.95 1012.56 1012.17 1011.79 1011.45 1011.18 1010.99 1010.88 1010.86 1010.90 1010.98 1011.08 1011.19 1011.30 1011.40 1011.50 1011.63 1011.80 1012.02 1012.31 1012.66 1013.07 1013.52
1016.86 1016.70 1016.50 1016.27 1016.01 1015.71 1015.41 1015.10 1014.80 1014.51 1014.22 1013.92 1013.61 1013.27 1012.90 1012.50 1012.08 1011.67 1011.27 1010.94 1010.67 1010.50 1010.42 1010.42 1010.48 1010.59 1010.72 1010.85 1010.97 1011.09 1011.20 1011.33 1011.50 1011.73 1012.03 1012.39 1012.82 1013.29
1017.03 1016.84 1016.61 1016.34 1016.05 1015.72 1015.37 1015.02 1014.67 1014.32 1013.97 1013.60 1013.22 1012.82 1012.39 1011.93 1011.47 1011.02 1010.61 1010.26 1010.00 1009.85 1009.80 1009.84 1009.95 1010.11 1010.29 1010.48 1010.65 1010.81 1010.97 1011.14 1011.34 1011.58 1011.89 1012.27 1012.71 1013.19
1016.97 1016.75 1016.51 1016.23 1015.91 1015.57 1015.21 1014.83 1014.45 1014.05 1013.65 1013.23 1012.78 1012.31 1011.81 1011.29 1010.77 1010.27 1009.83 1009.46 1009.20 1009.05 1009.02 1009.10 1009.27 1009.50 1009.76 1010.02 1010.28 1010.53 1010.76 1010.99 1011.25 1011.53 1011.87 1012.27 1012.71 1013.20
1016.68 1016.45 1016.20 1015.92 1015.61 1015.28 1014.91 1014.53 1014.13 1013.72 1013.28 1012.81 1012.31 1011.78 1011.21 1010.63 1010.04 1009.49 1008.99 1008.58 1008.29 1008.13 1008.12 1008.22 1008.44 1008.73 1009.07 1009.44 1009.80 1010.16 1010.49 1010.82 1011.16 1011.51 1011.89 1012.32 1012.77 1013.26
1016.21 1015.98 1015.74 1015.47 1015.18 1014.86 1014.52 1014.15 1013.75 1013.32 1012.87 1012.37 1011.83 1011.24 1010.62 1009.97 1009.32 1008.69 1008.13 1007.66 1007.32 1007.13 1007.10 1007.21 1007.45 1007.80 1008.22 1008.68 1009.16 1009.63 1010.09 1010.54 1010.98 1011.41 1011.86 1012.32 1012.80 1013.30
1015.64 1015.41 1015.19 1014.94 1014.67 1014.38 1014.05 1013.69 1013.31 1012.88 1012.42 1011.90 1011.33 1010.71 1010.04 1009.33 1008.62 1007.92 1007.28 1006.74 1006.34 1006.08 1006.00 1006.09 1006.33 1006.71 1007.19 1007.74 1008.32 1008.92 1009.50 1010.08 1010.63 1011.16 1011.69 1012.20 1012.71 1013.22
1015.04 1014.83 1014.62 1014.40 1014.14 1013.86 1013.55 1013.20 1012.82 1012.39 1011.92 1011.40 1010.81 1010.16 1009.45 1008.71 1007.94 1007.18 1006.47 1005.85 1005.36 1005.03 1004.88 1004.91 1005.13 1005.50 1006.01 1006.62 1007.29 1007.99 1008.70 1009.39 1010.06 1010.70 1011.30 1011.88 1012.43 1012.95
1014.49 1014.29 1014.10 1013.88 1013.63 1013.35 1013.03 1012.68 1012.29 1011.85 1011.37 1010.84 1010.24 1009.58 1008.86 1008.08 1007.27 1006.46 1005.69 1004.99 1004.42 1004.00 1003.77 1003.73 1003.89 1004.24 1004.75 1005.39 1006.11 1006.90 1007.70 1008.50 1009.27 1010.01 1010.70 1011.34 1011.93 1012.48
1013.99 1013.82 1013.63 1013.41 1013.15 1012.85 1012.50 1012.12 1011.71 1011.25 1010.76 1010.21 1009.61 1008.95 1008.23 1007.44 1006.62 1005.78 1004.97 1004.21 1003.56 1003.06 1002.74 1002.62 1002.71 1003.01 1003.49 1004.12 1004.88 1005.71 1006.59 1007.47 1008.33 1009.15 1009.91 1010.61 1011.25 1011.83
1013.54 1013.38 1013.19 1012.95 1012.67 1012.33 1011.95 1011.52 1011.07 1010.58 1010.07 1009.51 1008.92 1008.27 1007.56 1006.79 1005.98 1005.14 1004.31 1003.52 1002.82 1002.25 1001.85 1001.65 1001.67 1001.89 1002.33 1002.94 1003.69 1004.55 1005.47 1006.40 1007.32 1008.20 1009.03 1009.78 1010.46 1011.08
1013.08 1012.93 1012.73 1012.47 1012.15 1011.77 1011.33 1010.86 1010.36 1009.84 1009.31 1008.75 1008.17 1007.54 1006.87 1006.14 1005.36 1004.55 1003.73 1002.93 1002.21 1001.59 1001.13 1000.87 1000.81 1000.97 1001.34 1001.91 1002.65 1003.51 1004.44 1005.41 1006.37 1007.30 1008.17 1008.97 1009.69 1010.34
1012.55 1012.40 1012.19 1011.90 1011.54 1011.11 1010.63 1010.11 1009.58 1009.03 1008.48 1007.93 1007.37 1006.79 1006.17 1005.50 1004.78 1004.01 1003.23 1002.45 1001.73 1001.09 1000.60 1000.28 1000.16 1000.26 1000.58 1001.10 1001.81 1002.65 1003.59 1004.57 1005.56 1006.53 1007.43 1008.27 1009.02 1009.70
1011.89 1011.73 1011.51 1011.20 1010.80 1010.34 1009.82 1009.27 1008.71 1008.15 1007.61 1007.08 1006.56 1006.02 1005.46 1004.86 1004.22 1003.52 1002.79 1002.06 1001.35 1000.72 1000.21 999.85 999.69 999.74 1000.02 1000.50 1001.17 1002.00 1002.93 1003.92 1004.94 1005.93 1006.87 1007.74 1008.52 1009.23
1011.06 1010.89 1010.65 1010.32 1009.91 1009.42 1008.89 1008.33 1007.77 1007.22 1006.70 1006.20 1005.72 1005.25 1004.76 1004.24 1003.67 1003.05 1002.38 1001.70 1001.03 1000.41 999.90 999.53 999.34 999.36 999.60 1000.05 1000.69 1001.50 1002.43 1003.43 1004.46 1005.48 1006.46 1007.37 1008.19 1008.94
1010.06 1009.87 1009.61 1009.27 1008.85 1008.37 1007.84 1007.29 1006.74 1006.22 1005.74 1005.29 1004.87 1004.46 1004.04 1003.59 1003.09 1002.54 1001.95 1001.32 1000.69 1000.10 999.59 999.22 999.02 999.01 999.22 999.65 1000.28 1001.07 1002.00 1003.02 1004.08 1005.13 1006.15 1007.10 1007.97 1008.76
Thickness
5688 5686 5684 5684 5683 5682 5681 5679 5675 5672 5674 5682 5688 5695 5698 5701 5704 5707 5710 5712 5713 5715 5717 5718 5720 5721 5722 5724 5725 5725 5726 5726 5726 5726 5726 5727 5726 5726
5688 5686 5684 5683 5683 5682 5681 5680 5679 5676 5674 5680 5685 5691 5695 5699 5701 5703 5706 5708 5710 5712 5713 5715 5716 5717 5718 5720 5721 5722 5722 5723 5723 5723 5723 5723 5723 5723
5688 5686 5684 5684 5682 5681 5681 5680 5679 5678 5675 5678 5683 5688 5691 5694 5697 5699 5702 5704 5707 5708 5710 5711 5712 5713 5714 5715 5716 5718 5718 5718 5719 5719 5719 5720 5719 5720
5687 5685 5684 5684 5682 5681 5680 5679 5679 5679 5677 5676 5680 5683 5687 5690 5693 5695 5698 5700 5702 5704 5706 5707 5708 5709 5710 5711 5712 5713 5714 5714 5715 5715 5715 5716 5715 5715
5687 5685 5684 5682 5680 5680 5679 5678 5678 5679 5677 5676 5677 5680 5683 5686 5688 5690 5693 5695 5698 5700 5702 5703 5704 5705 5706 5707 5708 5709 5709 5710 5710 5711 5711 5711 5711 5711
5687 5685 5684 5682 5680 5679 5678 5677 5677 5676 5675 5675 5675 5677 5679 5682 5683 5683 5685 5688 5691 5695 5697 5698 5700 5701 5702 5703 5704 5704 5705 5706 5706 5706 5706 5707 5707 5707
5685 5684 5683 5682 5681 5679 5678 5676 5674 5673 5672 5672 5672 5673 5674 5675 5677 5679 5679 5682 5685 5688 5690 5692 5694 5695 5697 5698 5699 5700 5701 5701 5702 5702 5702 5702 5702 5701
5681 5681 5681 5680 5679 5678 5677 5676 5674 5671 5669 5668 5668 5668 5670 5672 5673 5674 5674 5674 5676 5683 5683 5685 5687 5689 5691 5693 5694 5695 5696 5696 5696 5697 5697 5696 5696 5695
5677 5676 5676 5676 5675 5673 5673 5673 5671 5670 5669 5666 5665 5666 5667 5668 5668 5668 5669 5670 5673 5677 5677 5678 5680 5682 5685 5687 5688 5689 5690 5690 5690 5690 5690 5690 5690 5689
5672 5671 5669 5669 5669 5668 5667 5666 5665 5664 5664 5664 5663 5664 5665 5665 5665 5665 5666 5666 5668 5671 5672 5670 5673 5675 5679 5680 5682 5683 5683 5683 5683 5683 5683 5683 5683 5682
5666 5665 5663 5662 5662 5661 5659 5657 5657 5658 5658 5658 5659 5659 5660 5660 5660 5658 5658 5657 5659 5662 5665 5664 5666 5667 5670 5672 5674 5675 5676 5676 5676 5676 5676 5676 5675 5674
5658 5657 5656 5655 5654 5652 5649 5647 5647 5649 5649 5650 5650 5651 5652 5653 5653 5653 5653 5651 5651 5654 5658 5658 5658 5658 5659 5663 5665 5667 5667 5668 5668 5668 5668 5667 5666 5665
5648 5647 5647 5646 5645 5643 5641 5639 5639 5640 5640 5639 5639 5640 5641 5643 5644 5645 5646 5646 5646 5648 5652 5651 5651 5651 5651 5652 5655 5657 5658 5659 5659 5659 5659 5659 5658 5657
5639 5638 5637 5636 5635 5633 5631 5631 5631 5630 5628 5628 5628 5629 5631 5632 5634 5636 5638 5639 5642 5644 5646 5645 5645 5645 5643 5643 5644 5647 5648 5649 5650 5650 5650 5649 5648 5648
5629 5628 5626 5625 5623 5622 5621 5621 5619 5617 5615 5615 5617 5620 5622 5623 5624 5625 5628 5630 5632 5634 5637 5638 5639 5639 5639 5638 5637 5637 5638 5639 5640 5640 5640 5639 5639 5639
5617 5616 5614 5612 5609 5608 5608 5607 5606 5605 5604 5604 5606 5609 5611 5611 5612 5615 5616 5618 5620 5623 5626 5628 5630 5631 5630 5631 5631 5630 5630 5630 5631 5630 5630 5629 5629 5629
5605 5602 5599 5597 5595 5594 5593 5593 5593 5592 5593 5594 5594 5596 5598 5600 5602 5604 5606 5608 5610 5613 5615 5616 5618 5620 5622 5623 5621 5622 5622 5622 5622 5621 5619 5618 5618 5620
5591 5588 5586 5583 5582 5581 5581 5581 5581 5580 5581 5582 5583 5585 5587 5589 5592 5593 5594 5597 5600 5603 5605 5605 5605 5606 5608 5609 5613 5614 5613 5613 5612 5612 5611 5610 5609 5609
5577 5575 5573 5571 5570 5569 5568 5568 5569 5569 5569 5570 5571 5573 5575 5577 5580 5582 5583 5586 5589 5592 5594 5595 5596 5598 5600 5602 5603 5604 5605 5604 5603 5602 5602 5602 5602 5601
5564 5562 5561 5559 5558 5557 5556 5555 5556 5556 5556 5557 5559 5561 5563 5565 5567 5570 5573 5575 5578 5581 5583 5585 5588 5591 5595 5596 5594 5592 5595 5596 5595 5594 5591 5590 5590 5590
5552 5550 5548 5547 5546 5544 5543 5543 5542 5543 5544 5544 5545 5548 5551 5553 5556 5559 5562 5565 5567 5570 5573 5578 5582 5583 5582 5581 5580 5581 5583 5586 5589 5588 5584 5581 5578 5578
5539 5538 5536 5535 5533 5532 5531 5529 5529 5530 5530 5532 5533 5535 5538 5541 5545 5549 5552 5555 5558 5562 5565 5567 5568 5568 5569 5572 5574 5572 5571 5573 5575 5577 5577 5579 5576 5574
5527 5525 5524 5522 5521 5519 5517 5517 5517 5518 5518 5520 5521 5524 5526 5529 5534 5538 5541 5544 5548 5552 5553 5554 5555 5558 5561 5563 5563 5562 5561 5562 5562 5563 5562 5566 5569 5571